Weather in Marawila

Sri Lanka     7°22′33″N   80°10′02″E
temp.,
°C
wind,
m/s
gust,
m/s
humid.,
%
clouds,
%
prec.,
mm/h
press.,
hPa
HPBL,
m
23 april, fri
fri2323:30+25sse149422 0.3 1012137
02:30+24s11959 2.5 101042
05:30+23s169567 2.8 1011173
08:30+27ssw257538 0.0 1013547
11:30+32sw225246 0.0 10111582
14:30+29sw356878 0.4 1009492
17:30+29sw246918 0.7 1009561
20:30+25s138720 0.0 101086
24 april, sat
sat2423:30+24sse11915 0.0 101132
02:30+24sse12937 0.0 100950
05:30+23sse12945 0.0 101044
08:30+29ssw137152 0.0 1012619
11:30+34sw21476 0.0 10102033
14:30+35wsw434312 0.0 10061983
17:30+28wsw35775 1.3 1008341
20:30+25s17925 0.2 1010243
25 april, sun
sun2523:30+25s139428 0.5 101183
02:30+24sse11966 0.0 100938
05:30+23sse11978 0.0 101041
08:30+28s13767 0.0 1012577
11:30+34sw22496 0.0 10101809
14:30+35wsw334229 0.0 10062086
17:30+28sw368086 1.6 1008271
20:30+25s169332 1.4 1010179
26 april, mon
mon2623:30+25s12945 2.6 101059
02:30+24s129695 0.0 100854
05:30+23s12965 0.0 100964
08:30+28ssw2579100 0.0 1011612
11:30+33sw335271 0.1 10091765
14:30+33wsw334857 0.0 10061750
17:30+29wsw366689 0.0 1007830
20:30+26ssw288421 0.1 1010375
27 april, tue
tue2723:30+25s289092 0.1 1009326
02:30+24s16946 0.0 1008200
05:30+23sse149516 0.0 1008128
08:30+29ssw36675 0.0 1011820
11:30+34sw34455 0.0 10091928
14:30+34wsw43405 0.0 10062355
17:30+29wsw366374 0.0 1007715
20:30+25s188533 0.0 1010317